Content
SEND FEEDBACK

Daily
Averages
Monthly
Summary
Mexico

SAN MARTINIANO, QUINTANA ROO


Home > North America > Mexico > Quintana Roo
Elevation: 49 feet     Latitude: 20 47N     Longitude: 087 16W

WEATHER
 
SELECT A DAY
Number of Records: 202,032;   Date Range: 2/21/06 - 10/22/14
 
SHARE

PRINT THIS DATA

[ ← Previous Day ]
WEATHER ALMANAC - OCTOBER 21, 2013
[ Next Day → ]
[ °C ]   °F
Weather ElementAverageHighLow
Temperature79.5 °F89.6 °F (3:15 pm)73.4 °F (3:15 am)
Dewpoint34.3 °F75.2 °F (11:55 pm) (7:00 pm)
Humidity61.3 %100 % (11:55 pm)33 % (4:55 pm)
Barometer29.99 in30.04 in (9:55 am)29.95 in (3:55 pm)
Wind Speed2.6 mph8.1 mph (4:55 pm)
Weather ElementAverage
Visibility8.9 mi
Wind DirectionESE (117.2 °)

Weather ElementTotal
Precipitation---
Cooling Degree Days16.5 (Base 65)
Growing Degree Days31.5 (Base 50)
Averaged from 71 records on October 21, 2013
WEATHER CONDITIONS BREAKOUT
WIND DIRECTION BREAKOUT
WEATHER BY HOUR - OCTOBER 21, 2013
[ °C ]   °F
Local TimeTemperatureDewpointHumidityBarometerVisibilityWind DirectionWind SpeedGust SpeedPrecipitationEventsConditions
12:35 AM77.0 °F0.0 °F30.00 in10.0 miENE (70°)3.5 mphOvercast
12:55 AM77.0 °F0.0 °F29.99 in10.0 miEast (80°)5.8 mphMostly Cloudy
1:15 AM75.2 °F0.0 °F29.99 in10.0 miENE (70°)3.5 mphScattered Clouds
1:35 AM75.2 °F0.0 °F29.99 in10.0 miNE (40°)3.5 mphMostly Cloudy
1:55 AM75.2 °F0.0 °F29.99 in10.0 miENE (60°)5.8 mphMostly Cloudy
2:15 AM75.2 °F0.0 °F29.98 in10.0 miNE (40°)3.5 mphScattered Clouds
2:35 AM75.2 °F0.0 °F29.98 in10.0 miNNE (30°)4.6 mphClear
2:55 AM75.2 °F0.0 °F29.98 in10.0 miCalmClear
3:15 AM73.4 °F0.0 °F29.98 in10.0 miCalmClear
3:35 AM73.4 °F0.0 °F29.98 in7.0 miCalmClear
3:55 AM73.4 °F0.0 °F29.98 in7.0 miNNE (30°)3.5 mphClear
4:15 AM73.4 °F0.0 °F29.98 in7.0 miNNE (30°)3.5 mphClear
4:35 AM73.4 °F0.0 °F29.98 in7.0 miCalmClear
4:55 AM73.4 °F0.0 °F29.98 in7.0 miNNE (30°)3.5 mphClear
5:15 AM73.4 °F0.0 °F29.98 in7.0 miNNE (30°)3.5 mphClear
5:35 AM73.4 °F0.0 °F29.99 in7.0 miCalmClear
5:55 AM73.4 °F0.0 °F29.99 in7.0 miCalmScattered Clouds
6:15 AM73.4 °F0.0 °F29.99 in7.0 miCalmOvercast
6:35 AM73.4 °F0.0 °F30.00 in10.0 miCalmOvercast
6:55 AM73.4 °F0.0 °F30.00 in10.0 miCalmOvercast
7:15 AM73.4 °F0.0 °F30.00 in10.0 miCalmOvercast
7:35 AM73.4 °F0.0 °F30.00 in10.0 miEast (80°)3.5 mphOvercast
7:55 AM73.4 °F0.0 °F30.01 in7.0 miCalmOvercast
8:15 AM75.2 °F0.0 °F30.02 in10.0 miCalmOvercast
8:35 AM75.2 °F0.0 °F30.02 in10.0 miCalmOvercast
8:55 AM75.2 °F0.0 °F30.02 in10.0 miCalmOvercast
9:15 AM77.0 °F0.0 °F30.02 in7.0 miCalmOvercast
9:35 AM77.0 °F0.0 °F30.03 in7.0 miCalmOvercast
9:55 AM78.8 °F0.0 °F30.04 in7.0 miCalmOvercast
10:15 AM78.8 °F0.0 °F30.04 in5.0 miCalmHaze
10:35 AM78.8 °F0.0 °F30.04 in7.0 miCalmOvercast
10:55 AM78.8 °F0.0 °F30.04 in7.0 miWest (280°)3.5 mphOvercast
11:15 AM80.6 °F0.0 °F30.04 in5.0 miWSW (250°)3.5 mphHaze
11:35 AM80.6 °F0.0 °F30.04 in5.0 miCalmHaze
11:55 AM80.6 °F0.0 °F30.04 in5.0 miSW (220°)3.5 mphHaze
12:15 PM80.6 °F73.4 °F79 %30.04 in5.0 miWest (270°)4.6 mphHaze
12:35 PM82.4 °F73.4 °F74 %30.03 in7.0 miWest (260°)3.5 mphMostly Cloudy
12:55 PM84.2 °F71.6 °F66 %30.02 in7.0 miWSW (240°)3.5 mphScattered Clouds
1:15 PM84.2 °F73.4 °F70 %30.02 in7.0 miCalmScattered Clouds
1:35 PM86.0 °F69.8 °F58 %30.01 in10.0 miWSW (240°)3.5 mphScattered Clouds
1:55 PM87.8 °F68.0 °F52 %29.99 in10.0 miWest (270°)6.9 mphClear
2:15 PM87.8 °F68.0 °F52 %29.98 in10.0 miWNW (300°)3.5 mphClear
2:35 PM87.8 °F68.0 °F52 %29.98 in10.0 miWNW (290°)4.6 mphScattered Clouds
2:55 PM87.8 °F66.2 °F49 %29.97 in10.0 miWest (270°)5.8 mphMostly Cloudy
3:15 PM89.6 °F64.4 °F43 %29.96 in10.0 miWSW (240°)5.8 mphScattered Clouds
3:35 PM89.6 °F62.6 °F40 %29.96 in10.0 miWSW (240°)6.9 mphScattered Clouds
3:55 PM89.6 °F60.8 °F38 %29.95 in10.0 miCalmClear
4:15 PM89.6 °F59.0 °F36 %29.95 in10.0 miWSW (250°)6.9 mphClear
4:35 PM89.6 °F59.0 °F36 %29.95 in10.0 miWest (270°)6.9 mphClear
4:55 PM89.6 °F57.2 °F33 %29.95 in10.0 miWest (260°)8.1 mphClear
5:15 PM89.6 °F57.2 °F33 %29.95 in10.0 miWest (270°)8.1 mphClear
5:35 PM89.6 °F59.0 °F36 %29.95 in10.0 miWest (270°)5.8 mphClear
5:55 PM87.8 °F60.8 °F40 %29.95 in10.0 miWest (270°)5.8 mphClear
6:15 PM86.0 °F66.2 °F51 %29.95 in10.0 miWest (280°)5.8 mphClear
6:35 PM84.2 °F68.0 °F58 %29.96 in10.0 miWest (280°)4.6 mphClear
6:55 PM82.4 °F69.8 °F66 %29.96 in10.0 miWest (280°)4.6 mphClear
7:15 PM82.4 °F69.8 °F66 %29.96 in10.0 miNW (310°)4.6 mphClear
7:35 PM80.6 °F69.8 °F70 %29.97 in10.0 miWNW (300°)3.5 mphClear
7:55 PM80.6 °F69.8 °F70 %29.98 in10.0 miCalmClear
8:15 PM80.6 °F69.8 °F70 %29.98 in10.0 miNW (310°)4.6 mphClear
8:35 PM80.6 °F69.8 °F70 %29.98 in10.0 miCalmClear
8:55 PM78.8 °F69.8 °F74 %29.99 in10.0 miNW (320°)3.5 mphClear
9:15 PM78.8 °F69.8 °F74 %30.00 in10.0 miCalmClear
9:35 PM78.8 °F69.8 °F74 %30.00 in10.0 miNNW (340°)3.5 mphClear
9:55 PM77.0 °F69.8 °F78 %30.00 in10.0 miCalmClear
10:15 PM77.0 °F69.8 °F78 %29.99 in10.0 miNorth (350°)3.5 mphScattered Clouds
10:35 PM77.0 °F69.8 °F78 %30.00 in10.0 miCalmScattered Clouds
10:55 PM77.0 °F69.8 °F78 %29.99 in10.0 miCalmClear
11:15 PM77.0 °F71.6 °F83 %29.99 in10.0 miCalmClear
11:35 PM77.0 °F71.6 °F83 %29.99 in10.0 miCalmClear
11:55 PM75.2 °F75.2 °F100 %29.99 in10.0 miCalmClear
Hourly data recorded from KPCM, located miles away from San Martiniano, Quintana Roo







STORIES FROM OUR PARTNERS